Location: Fort Wayne
(41.1310°N, 85.1290°W)
Time: 23:41:02
(UTC-04:00)

Cosmos 1980 - Visible Passes

Search period start: 01 May 2016 00:00
Search period end: 11 May 2016 00:00
Orbit: 838 x 849 km, 71.0° (Epoch: 01 May)

Date Brightness Start Highest point End Pass type
(mag) Time Alt. Az. Time Alt. Az. Time Alt. Az.
01 May 4.6 02:04:06 45° NE 02:04:06 45° NE 02:08:03 10° NNE visible
01 May 5.5 03:45:56 17° WNW 03:47:04 18° NW 03:50:58 10° N visible
02 May 4.6 01:49:40 44° NE 01:49:40 44° NE 01:53:30 10° NNE visible
02 May 5.5 03:31:30 18° WNW 03:32:30 19° NW 03:36:30 10° N visible
03 May 4.6 01:35:12 42° NE 01:35:12 42° NE 01:38:59 10° NNE visible
03 May 5.5 03:17:01 19° WNW 03:17:57 20° NW 03:22:03 10° N visible
04 May 4.7 01:20:42 41° NE 01:20:42 41° NE 01:24:26 10° NNE visible
04 May 5.5 03:02:30 20° WNW 03:03:23 21° NW 03:07:35 10° N visible
05 May 4.6 01:06:09 41° NE 01:06:09 41° NE 01:09:54 10° NNE visible
05 May 5.5 02:47:58 21° WNW 02:48:49 21° NW 02:53:07 10° N visible
06 May 4.6 00:51:33 41° NE 00:51:33 41° NE 00:55:22 10° NNE visible
06 May 5.4 02:33:22 21° WNW 02:34:17 22° NW 02:38:39 10° N visible
07 May 4.5 00:36:56 41° NE 00:36:56 41° NE 00:40:49 10° NNE visible
07 May 5.4 02:18:44 22° WNW 02:19:43 23° NW 02:24:10 10° N visible
08 May 4.4 00:22:14 42° ENE 00:22:14 42° ENE 00:26:17 10° NNE visible
08 May 5.4 02:04:02 22° WNW 02:05:09 24° NW 02:09:42 10° N visible
09 May 4.3 00:07:29 44° ENE 00:07:29 44° ENE 00:11:44 10° NNE visible
09 May 5.4 01:49:17 23° WNW 01:50:37 25° NW 01:55:14 10° N visible
09 May 4.2 23:52:39 45° ENE 23:52:39 45° ENE 23:57:11 10° NE visible
10 May 5.4 01:34:27 22° W 01:36:03 26° NW 01:40:44 10° N visible
10 May 4.1 23:37:45 46° E 23:37:45 46° E 23:42:39 10° NE visible
